{"data":{"norad_id":55338,"epoch":"2026-05-24T22:52:56.453952Z","epoch_age_seconds":82542,"freshness":"FRESH","line1":"1 55338U 23013H   26144.95343118  .00000841  00000+0  40079-4 0  9990","line2":"2 55338  43.0019 232.9994 0001309 274.6806  85.3896 15.27586999183335","mean_motion":15.27586999,"eccentricity":0.0001309,"inclination_deg":43.0019,"raan_deg":232.9994,"arg_perigee_deg":274.6806,"mean_anomaly_deg":85.3896,"bstar":4.0079e-5,"rev_number":18333,"period_min":94.266316808317,"perigee_km":482.13001207915,"apogee_km":483.92626511244,"semimajor_km":6861.1651385958,"source":"CELESTRAK","updated_at":"2026-05-25T13:38:17.761145Z"}}